Date,TemperatureHighF,TemperatureAvgF,TemperatureLowF,DewpointHighF,DewpointAvgF,DewpointLowF,HumidityHigh,HumidityAvg,HumidityLow,PressureMaxIn,PressureMinIn,WindSpeedMaxMPH,WindSpeedAvgMPH,GustSpeedMaxMPH,PrecipitationSumIn
2013-2-1,40.2,29.3,19.9,33.1,20.6,12.8,87,70,58,30.25,29.86,11,1,11,0.22
2013-2-2,46.7,31.4,18.3,33.9,24.4,13.3,92,76,50,30.25,29.95,8,0,8,0.22
2013-2-3,52.5,36.9,28.2,39.1,29.8,22.8,96,77,53,29.97,29.82,11,1,11,0.22
2013-2-4,54.5,36.8,24.9,37.8,27.9,4.0,86,72,25,30.06,29.92,9,0,9,0.22
2013-2-5,59.3,41.0,27.6,46.5,33.5,25.1,93,76,49,29.97,29.86,7,0,7,0.22
2013-2-6,58.4,41.1,28.0,42.3,34.0,26.5,97,78,49,30.16,29.96,8,0,8,0.22
2013-2-7,46.0,38.8,31.2,41.4,35.9,-5.3,99,89,70,30.19,29.94,61,0,61,0.35
2013-2-8,57.5,43.1,33.2,52.4,40.0,-15.9,100,89,67,30.08,29.87,12,1,12,0.22
2013-2-9,56.4,38.8,28.2,34.6,29.1,25.1,88,71,37,30.26,30.05,10,1,10,0.22
2013-2-10,53.7,40.8,29.3,41.4,34.4,26.2,98,79,56,30.33,30.09,9,0,9,0.37
2013-2-11,62.6,51.8,41.5,60.0,49.3,38.3,100,92,67,30.10,29.95,8,0,8,0.22
2013-2-12,55.5,45.6,39.0,39.6,36.3,6.6,95,71,53,30.08,29.89,6,1,6,0.22
2013-2-13,54.1,42.0,32.7,49.5,39.9,30.4,99,93,70,29.90,29.60,11,1,11,0.22
2013-2-14,53.4,38.1,27.5,41.3,33.1,21.8,96,83,39,30.00,29.85,8,1,8,0.22
2013-2-15,62.4,39.4,24.0,45.1,33.3,15.2,99,81,50,30.05,29.89,9,1,9,0.22
2013-2-16,40.6,32.1,22.2,32.4,25.7,15.5,87,77,60,29.94,29.80,12,2,12,0.22
2013-2-17,38.4,27.3,19.2,20.4,15.4,11.0,77,61,44,30.16,29.93,11,2,11,0.22
2013-2-18,54.1,34.1,17.2,37.0,24.7,-10.1,90,70,51,30.26,30.10,9,1,9,0.22
2013-2-19,58.6,43.5,34.7,47.6,33.7,21.5,94,70,51,30.10,29.82,11,1,11,0.22
2013-2-20,50.1,36.6,27.6,26.9,20.3,15.6,64,52,38,30.07,29.98,12,2,12,0.22
2013-2-21,60.4,41.1,25.3,36.1,26.0,-3.1,88,56,39,30.17,30.00,6,0,6,0.22
2013-2-22,40.8,38.0,35.4,39.3,36.5,34.1,99,95,88,30.20,30.02,5,0,5,0.45
2013-2-23,55.4,45.4,37.0,52.3,44.4,36.8,100,96,88,30.04,29.79,2,0,2,0.24
2013-2-24,58.1,43.6,33.6,43.5,36.8,3.9,100,79,51,30.00,29.82,9,1,9,0.22
2013-2-25,48.0,38.2,30.9,35.8,31.4,27.5,92,77,62,30.09,29.95,6,0,6,0.22
2013-2-26,39.3,35.5,32.3,38.5,34.8,-12.7,100,97,91,29.97,29.55,6,0,6,1.78
2013-2-27,57.0,41.5,28.7,45.8,36.7,28.5,100,84,62,29.76,29.61,8,1,8,0.22
2013-2-28,47.4,37.0,31.6,36.9,30.7,26.5,95,79,62,29.86,29.69,12,1,12,0.22